Weather in Alice Springs

Australia     23°43′24″S   133°53′01″E
temp.,
°C
wind,
m/s
gust,
m/s
humid.,
%
clouds,
%
prec.,
mm/h
press.,
hPa
HPBL,
m
8 may, sat
sat800:30+21ne2225100 0.0 101416
03:30+18nne222817 0.0 101312
06:30+16ssw4434100 0.0 101648
09:30+19se784653 0.0 1018636
12:30+24e552893 0.0 10151121
15:30+27ene332139 0.0 10121470
18:30+22se562888 0.0 101458
21:30+20ese353298 0.0 101792
9 may, sun
sun900:30+19e343446 0.0 101651
03:30+18ene34405 0.0 101555
06:30+15ese115225 0.0 101712
09:30+20ene353821 0.0 1018323
12:30+26e542518 0.0 10161642
15:30+27ese642420 0.0 10142035
18:30+22se693370 0.0 1016258
21:30+19ese334077 0.0 101829
10 may, mon
mon1000:30+18e344435 0.0 101841
03:30+16e335026 0.0 101713
06:30+15ese33545 0.0 101911
09:30+21ese46395 0.0 1020570
12:30+25se54300 0.0 10181844
15:30+26sse54285 0.0 10162504
18:30+21se57400 0.0 101889
21:30+18se475272 0.0 1021101
11 may, tue
tue1100:30+16ese47570 0.0 1021103
03:30+14se45590 0.0 102156
06:30+13se33550 0.0 102222
09:30+18ese68360 0.0 1022709
12:30+22se66270 0.0 10201517
15:30+23se66250 0.0 10181882
18:30+19se58410 0.0 101993
21:30+16ese45520 0.0 102159
12 may, wed
wed1200:30+14ese33610 0.0 102113
03:30+13ese33660 0.0 102014
06:30+12ese33700 0.0 102113
09:30+18ese57500 0.0 1022640
12:30+22ese55330 0.0 10191410
15:30+24ese65270 0.0 10161715
18:30+19ese56382 0.0 101852
21:30+16ese444680 0.0 102039